2017-042F (42830 NORAD) Tracking and Keplerian Element Data

This shows tracking and keplerian element data for the satellite.

Feedback or suggestion? Click here.




ElementValue
Catalog42830
Name2017-042F
Epoch Orbit22881
Epoch Day269.07455226
Epoch Year2021
RAAN136.2245
Inclination97.4665
Eccentricity0.0014244
Argument of Perigee156.3763
Mean Anonmoly203.8114
Mean Motion14.93090136
Decay Rate1.459E-05
L11 42830U 17042F 21269.07455226 .00001459 00000-0 14493-3 0 9995
L22 42830 97.4665 136.2245 0014244 156.3763 203.8114 14.93090136228811

Live tracking and technical data element details for 2017-042F (NORAD 42830). 2017-042F can be tracked NOW for your location showing map with azimuth and elevation plus other details from your city location.

Track the satellite on the map from your city or location and see movement details for azimuth, elevation, latitude, longitude, range, height, and movement on the map or in text.







IsCatalogInMostPopularTable: catalog: 42830, numindb: 520
Update: records affected: 1



GetName: 42830 2017-042F

Hit Count: updated at: Mon, 27 Sep 2021 01:05:42 GMT